[[{"header":{"parameterUnit":"m.s-1","parameterCategory":1,"la1":30.2991,"la2":30.254,"lo1":-89.0895,"lo2":-89.0444,"dy":0.0017,"dx":0.0017,"nx":28,"ny":28,"refTime":"2025-04-12T21:00:00:Z","depth":0,"parameterNumber":2,"parameterNumberName":"U-component_of_WINDS"},"data":[0,0,0,0,0,0,0,0,0,0,0,0,0,0,0,0,0,0,0,0,0,0,0,0,0,0,0,0,0,0,0,0,0,0,0,0,0,0,0,0,0,0,0,0,0,0,0,0,0,0,0,0,0,0,0,0,0,0,-3.2495,-3.2496,0,-3.2589,-3.259,-3.2591,-3.2611,-3.261,-3.2609,-3.2608,-3.2703,-3.2706,-3.2709,0,0,0,0,0,0,0,0,0,0,0,0,0,-3.2331,-3.2334,-3.2495,-3.2496,-3.2498,-3.2589,-3.259,-3.2592,-3.2611,-3.261,-3.2609,-3.2608,-3.2702,-3.2706,-3.271,0,0,0,0,0,0,0,0,0,0,0,0,0,-3.2412,-3.2335,-3.2495,-3.2518,-3.2521,-3.2589,-3.259,-3.2592,-3.2611,-3.261,-3.2609,-3.2608,-3.2701,-3.2706,-3.271,-3.2761,0,0,-3.2725,-3.2727,0,0,0,0,0,0,0,0,-3.2407,-3.2418,-3.2514,-3.2517,-3.252,-3.2587,-3.2567,-3.2649,-3.2611,-3.2577,-3.2608,-3.2607,-3.2665,-3.2673,-3.2693,-3.2766,-3.277,-3.2725,-3.2728,-3.273,-3.2732,0,0,0,0,0,0,0,-3.2402,-3.2414,-3.2532,-3.2515,-3.2519,-3.2524,-3.2534,-3.2583,-3.2626,-3.258,-3.2581,-3.2592,-3.2667,-3.2688,-3.2695,-3.2771,-3.2725,-3.2729,-3.2732,-3.2734,-3.289,-3.2891,0,0,0,0,0,0,-3.2392,-3.2409,-3.2529,-3.2535,-3.246,-3.2527,-3.2539,-3.2567,-3.2625,-3.2633,-3.2593,-3.2593,-3.2681,-3.269,-3.2699,-3.2761,-3.273,-3.2735,-3.2737,-3.2889,-3.289,-3.2892,0,0,0,0,0,0,-3.2388,-3.2403,-3.2526,-3.2473,-3.2489,-3.2531,-3.2563,-3.2569,-3.259,-3.2636,-3.2643,-3.2607,-3.268,-3.2692,-3.2746,-3.2765,-3.2737,-3.2741,-3.2887,-3.2889,-3.2891,-3.2888,0,0,0,0,0,0,-3.2384,-3.2401,-3.2421,-3.2473,-3.2491,-3.2571,-3.2564,-3.2572,-3.2599,-3.2599,-3.2651,-3.2658,-3.268,-3.2738,-3.275,-3.2771,-3.2745,-3.2886,-3.2888,-3.289,-3.2886,-3.2889,-3.2892,0,0,0,0,0,-3.2378,-3.2416,-3.2422,-3.2436,-3.2517,-3.2572,-3.2583,-3.2608,-3.26,-3.262,-3.265,-3.2656,-3.2762,-3.2744,-3.2757,-3.278,-3.2885,-3.2888,-3.289,-3.2885,-3.2889,-3.2892,0,0,0,0,0,0,-3.2364,-3.2423,-3.243,-3.2487,-3.2524,-3.2575,-3.2601,-3.2611,-3.2651,-3.265,-3.2679,-3.2691,-3.2742,-3.2767,-3.2746,-3.2832,-3.2823,-3.2828,-3.2814,-3.2818,-3.2821,-3.2813,-3.2749,0,0,0,0,0,-3.2368,-3.2408,-3.2457,-3.2502,-3.2521,-3.2558,-3.2583,-3.2599,-3.2639,-3.2655,-3.2688,-3.2726,-3.2768,-3.2795,-3.2835,-3.2891,-3.2902,-3.2913,-3.2916,-3.2918,-3.2922,-3.2953,-3.2958,-3.2901,-3.2901,-3.2901,0,0,-3.2376,-3.2413,-3.2436,-3.2501,-3.2532,-3.2572,-3.2571,-3.2614,-3.2644,-3.2661,-3.2714,-3.274,-3.2784,-3.2839,-3.2864,-3.2861,-3.2941,-3.2922,-3.2923,-3.2926,-3.2956,-3.2961,-3.2966,-3.2903,-3.2903,-3.2902,0,0,-3.241,-3.2443,-3.2484,-3.2515,-3.2563,-3.2587,-3.2597,-3.2647,-3.2665,-3.2718,-3.2732,-3.2769,-3.284,-3.2871,-3.2896,-3.2944,-3.2952,-3.2957,-3.2971,-3.3,-3.3005,-3.3009,-3.3025,-3.303,-3.2961,-3.2961,-3.2961,0,-3.2413,-3.2475,-3.2503,-3.2546,-3.2573,-3.2592,-3.2633,-3.2663,-3.2721,-3.2739,-3.2735,-3.2825,-3.2856,-3.2918,-3.293,-3.295,-3.2962,-3.295,-3.3002,-3.3006,-3.3011,-3.3026,-3.3032,-3.2961,-3.2961,-3.2961,-3.2961,0,-3.2477,-3.2519,-3.2547,-3.2603,-3.2634,-3.2675,-3.2709,-3.2738,-3.2752,-3.2777,-3.2831,-3.287,-3.2919,-3.2935,-3.2949,-3.2999,-3.2995,-3.2996,-3.2987,-3.3016,-3.3031,-3.3037,-3.2962,-3.2962,-3.2961,-3.2961,0,0,-3.2503,-3.2575,-3.2585,-3.261,-3.2665,-3.2698,-3.2741,-3.279,-3.2813,-3.2853,-3.2889,-3.295,-3.2951,-3.2979,-3.2998,-3.3024,-3.3058,-3.3022,-3.3023,-3.3026,-3.3115,-3.3112,-3.3119,-3.3065,-3.3066,-3.3067,-3.3111,0,-3.2543,-3.262,-3.2647,-3.271,-3.2749,-3.2769,-3.2806,-3.2843,-3.2868,-3.2905,-3.2933,-3.2975,-3.2974,-3.2992,-3.3019,-3.3048,-3.3076,-3.3046,-3.3097,-3.3099,-3.3083,-3.3127,-3.3125,-3.3164,-3.3117,-3.3118,-3.3119,0,-3.2599,-3.264,-3.2707,-3.2757,-3.2775,-3.2808,-3.2855,-3.289,-3.2933,-3.295,-3.2982,-3.2999,-3.3044,-3.3034,-3.3096,-3.3075,-3.3098,-3.3116,-3.3118,-3.3122,-3.3109,-3.3131,-3.3177,-3.3182,-3.3128,-3.3128,-3.3127,0,-3.261,-3.2682,-3.2732,-3.2754,-3.2814,-3.2836,-3.2862,-3.2904,-3.2932,-3.2973,-3.2991,-3.3037,-3.3061,-3.3097,-3.3125,-3.3115,-3.3184,-3.3177,-3.3198,-3.3198,-3.321,-3.3209,-3.3259,-3.3228,-3.3228,-3.3228,-3.3228,0,-3.265,-3.269,-3.2738,-3.2768,-3.2813,-3.2844,-3.2889,-3.2916,-3.2953,-3.2989,-3.3009,-3.3042,-3.3078,-3.3116,-3.3139,-3.3187,-3.3198,-3.3212,-3.3217,-3.3209,-3.3207,-3.3223,-3.322,-3.323,-3.3229,-3.3229,-3.3229,0,-3.2669,-3.2703,-3.2758,-3.281,-3.2825,-3.2856,-3.2901,-3.2931,-3.2957,-3.3002,-3.3015,-3.3056,-3.3102,-3.3134,-3.3193,-3.3208,-3.3259,-3.3265,-3.3244,-3.3247,-3.3266,-3.3263,-3.3327,-3.3337,-3.3301,-3.3301,-3.3301,0,-3.2692,-3.2723,-3.2779,-3.2805,-3.2831,-3.2872,-3.29,-3.2933,-3.2962,-3.3014,-3.3037,-3.3084,-3.3124,-3.3196,-3.3231,-3.3276,-3.3282,-3.3301,-3.3289,-3.328,-3.3281,-3.3278,-3.3281,-3.3302,-3.3303,-3.3303,-3.3303,0,-3.2728,-3.2743,-3.2784,-3.283,-3.2864,-3.2902,-3.294,-3.296,-3.2999,-3.3031,-3.3078,-3.3108,-3.3169,-3.3215,-3.3264,-3.3291,-3.3303,-3.3307,-3.3314,-3.3306,-3.3292,-3.3298,-3.3248,-3.3305,-3.3305,-3.3305,-3.3305,-3.3304,-3.2748,-3.2777,-3.2821,-3.2866,-3.2898,-3.2934,-3.2965,-3.2996,-3.3036,-3.3087,-3.3105,-3.3153,-3.3196,-3.3263,-3.329,-3.3329,-3.3328,-3.3338,-3.3341,-3.3342,-3.3341,-3.3287,-3.3338,-3.3338,-3.3338,-3.3338,-3.3338,0,-3.2785,-3.2814,-3.2855,-3.2908,-3.2944,-3.2954,-3.2997,-3.3025,-3.3068,-3.3107,-3.3146,-3.32,-3.3246,-3.3285,-3.3332,-3.3355,-3.3362,-3.3366,-3.3364,-3.337,-3.334,-3.3329,-3.336,-3.336,-3.336,-3.336,-3.336,-3.336,-3.2807,-3.2856,-3.2877,-3.2942,-3.2972,-3.302,-3.3044,-3.3076,-3.3108,-3.3168,-3.3206,-3.3231,-3.3271,-3.3321,-3.3363,-3.3374,-3.3389,-3.3392,-3.3403,-3.3375,-3.3372,-3.3369,-3.3358,-3.3395,-3.3396,-3.343,-3.343,-3.343]},{"header":{"parameterUnit":"m.s-1","parameterCategory":1,"la1":30.2991,"la2":30.254,"lo1":-89.0895,"lo2":-89.0444,"dy":0.0017,"dx":0.0017,"nx":28,"ny":28,"refTime":"2025-04-12T21:00:00:Z","depth":0,"parameterNumber":3,"parameterNumberName":"V-component_of_WINDS"},"data":[0,0,0,0,0,0,0,0,0,0,0,0,0,0,0,0,0,0,0,0,0,0,0,0,0,0,0,0,0,0,0,0,0,0,0,0,0,0,0,0,0,0,0,0,0,0,0,0,0,0,0,0,0,0,0,0,0,0,3.133,3.133,0,3.1311,3.1311,3.1311,3.1308,3.1308,3.1309,3.1309,3.1286,3.1285,3.1284,0,0,0,0,0,0,0,0,0,0,0,0,0,3.1361,3.136,3.133,3.133,3.1329,3.1311,3.1311,3.1311,3.1308,3.1308,3.1309,3.1309,3.1286,3.1285,3.1284,0,0,0,0,0,0,0,0,0,0,0,0,0,3.1345,3.136,3.133,3.1326,3.1326,3.1311,3.1311,3.1311,3.1308,3.1308,3.1309,3.1309,3.1286,3.1285,3.1284,3.1271,0,0,3.128,3.128,0,0,0,0,0,0,0,0,3.1346,3.1344,3.1327,3.1326,3.1326,3.1312,3.1313,3.1297,3.1308,3.1315,3.1309,3.1309,3.1294,3.1292,3.1288,3.127,3.1269,3.128,3.128,3.1279,3.1279,0,0,0,0,0,0,0,3.1347,3.1345,3.1322,3.1327,3.1326,3.1324,3.1322,3.131,3.1303,3.1314,3.1314,3.1312,3.1294,3.1289,3.1288,3.1269,3.128,3.1279,3.1279,3.1278,3.124,3.124,0,0,0,0,0,0,3.1349,3.1346,3.1323,3.1322,3.1337,3.1324,3.1321,3.1316,3.1303,3.1301,3.1312,3.1312,3.1291,3.1289,3.1287,3.1271,3.1279,3.1278,3.1277,3.1241,3.124,3.124,0,0,0,0,0,0,3.135,3.1347,3.1324,3.1334,3.1331,3.1323,3.1317,3.1316,3.1311,3.1301,3.13,3.1309,3.1291,3.1288,3.1276,3.1271,3.1277,3.1276,3.1241,3.124,3.124,3.124,0,0,0,0,0,0,3.1351,3.1347,3.1343,3.1334,3.133,3.1314,3.1317,3.1315,3.131,3.131,3.1298,3.1296,3.1291,3.1277,3.1274,3.1269,3.1275,3.1241,3.1241,3.124,3.1241,3.124,3.1239,0,0,0,0,0,3.1352,3.1343,3.1343,3.134,3.1325,3.1313,3.1311,3.1307,3.1309,3.1304,3.1298,3.1297,3.1272,3.1276,3.1273,3.1267,3.1242,3.1241,3.124,3.1241,3.124,3.1239,0,0,0,0,0,0,3.135,3.1341,3.1341,3.1329,3.1322,3.1313,3.1307,3.1306,3.1297,3.1297,3.1291,3.1288,3.1276,3.127,3.1275,3.1254,3.1257,3.1255,3.1258,3.1257,3.1257,3.1258,3.1275,0,0,0,0,0,3.1349,3.1341,3.1334,3.1324,3.132,3.1314,3.1309,3.1307,3.1299,3.1295,3.1288,3.1279,3.127,3.1263,3.1254,3.124,3.1237,3.1234,3.1234,3.1233,3.1232,3.1225,3.1223,3.1238,3.1238,3.1238,0,0,3.1345,3.1339,3.1335,3.1323,3.1318,3.1309,3.1312,3.1303,3.1296,3.1293,3.1281,3.1276,3.1266,3.1253,3.1247,3.1247,3.1228,3.1232,3.1232,3.1231,3.1224,3.1223,3.1221,3.1237,3.1237,3.1237,0,0,3.1334,3.1329,3.1321,3.1315,3.1307,3.1304,3.1302,3.1293,3.129,3.1278,3.1276,3.1268,3.1251,3.1244,3.1239,3.1227,3.1225,3.1224,3.122,3.1213,3.1212,3.1211,3.1207,3.1205,3.1223,3.1223,3.1223,0,3.133,3.1318,3.1316,3.1308,3.1303,3.1302,3.1293,3.1287,3.1276,3.1272,3.1274,3.1254,3.1247,3.1233,3.123,3.1225,3.1223,3.1225,3.1212,3.1211,3.121,3.1206,3.1205,3.1223,3.1223,3.1223,3.1223,0,3.1314,3.1306,3.13,3.1291,3.1286,3.1277,3.1272,3.1267,3.1265,3.1261,3.1249,3.1241,3.1231,3.1227,3.1224,3.1212,3.1213,3.1214,3.1216,3.1209,3.1205,3.1203,3.1223,3.1223,3.1223,3.1223,0,0,3.13,3.1291,3.1289,3.1285,3.1277,3.1271,3.1262,3.1253,3.1248,3.1241,3.1233,3.122,3.1221,3.1215,3.1211,3.1205,3.1197,3.1207,3.1206,3.1205,3.1184,3.1183,3.1181,3.1196,3.1196,3.1196,3.1184,0,3.1288,3.1274,3.1272,3.1259,3.1252,3.1251,3.1244,3.1238,3.1234,3.1227,3.1222,3.1213,3.1215,3.1211,3.1205,3.1199,3.1193,3.12,3.1188,3.1188,3.119,3.1179,3.1178,3.1168,3.1183,3.1183,3.1182,0,3.1272,3.1266,3.1253,3.1247,3.1243,3.1237,3.1229,3.1222,3.1215,3.1213,3.1207,3.1205,3.1195,3.1199,3.1186,3.1191,3.1186,3.1183,3.1182,3.118,3.1184,3.1177,3.1165,3.1163,3.118,3.118,3.118,0,3.1263,3.1252,3.1243,3.1239,3.1232,3.1227,3.1224,3.1217,3.1212,3.1205,3.1202,3.1193,3.1188,3.1182,3.1177,3.118,3.1164,3.1167,3.1162,3.1162,3.1157,3.1158,3.1144,3.1155,3.1155,3.1155,3.1155,0,3.125,3.1242,3.1239,3.1233,3.1224,3.1222,3.1213,3.1209,3.1203,3.1197,3.1195,3.1189,3.1184,3.1176,3.1173,3.1162,3.116,3.1158,3.1157,3.1157,3.1158,3.1154,3.1154,3.1155,3.1155,3.1155,3.1155,0,3.1238,3.1236,3.1226,3.122,3.1219,3.1212,3.1207,3.1201,3.1198,3.119,3.1188,3.1182,3.1174,3.1169,3.1158,3.1155,3.1144,3.1143,3.1147,3.1146,3.1141,3.1141,3.1123,3.1121,3.1134,3.1134,3.1134,0,3.1229,3.1223,3.1218,3.1214,3.1211,3.1204,3.12,3.1197,3.1193,3.1185,3.118,3.1172,3.1165,3.1151,3.1146,3.1137,3.1136,3.1131,3.1135,3.1136,3.1136,3.1137,3.1136,3.113,3.113,3.113,3.113,0,3.1214,3.1214,3.1208,3.1202,3.1197,3.1192,3.1187,3.1184,3.1181,3.1175,3.1167,3.1162,3.1152,3.1143,3.1135,3.113,3.1129,3.1129,3.1127,3.1127,3.113,3.1128,3.1144,3.1129,3.1129,3.1129,3.1129,3.1129,3.1204,3.1199,3.1194,3.1188,3.1184,3.118,3.1175,3.1172,3.1166,3.1158,3.1157,3.1148,3.1142,3.1131,3.1126,3.1119,3.112,3.1118,3.1117,3.1116,3.1116,3.1131,3.1118,3.1118,3.1118,3.1118,3.1118,0,3.1188,3.1186,3.118,3.1174,3.1169,3.1171,3.1166,3.1161,3.1154,3.1149,3.1143,3.1134,3.1126,3.1121,3.1113,3.1109,3.1108,3.1107,3.1107,3.1106,3.1115,3.1118,3.1107,3.1107,3.1107,3.1107,3.1107,3.1107,3.118,3.1172,3.1171,3.1161,3.1158,3.1151,3.1148,3.1144,3.114,3.1131,3.1125,3.1122,3.1117,3.1109,3.1102,3.1101,3.1098,3.1096,3.1095,3.1104,3.1105,3.1106,3.1108,3.1096,3.1096,3.1086,3.1086,3.1085]}]]